Regional Weather Roundup
Issued by NWS

Home | Current Version | Previous Version | Graphics & Text | Print | Product List | Glossary On
Versions: 1 2 3 4 5 6 7 8 9 10 11 12 13 14 15 16 17 18 19 20 21 22 23 24 25 26 27 28 29 30 31 32 33 34 35 36 37 38 39 40 41 42 43 44 45 46 47 48 49 50
000
ASUS44 KMEG 251410
RWRTN
TENNESSEE HOURLY STATE WEATHER ROUNDUP
NATIONAL WEATHER SERVICE MEMPHIS TN
900 AM CDT SAT OCT 25 2014

TNZ002-004-019-021-049-052-054-088>092-251500-
WEST TENNESSEE

CITY           SKY/WX    TMP DP  RH WIND       PRES   REMARKS
MEMPHIS INTL   MOSUNNY   64  56  75 SW6       30.11R
NWS MEMPHIS      N/A     59 N/A N/A MISG        N/A
JACKSON        PTSUNNY   61  56  83 SW6       30.09S
DYERSBURG      PTSUNNY   61  48  63 CALM      30.09S
UNION CITY     PTSUNNY   57  55  94 SW3       30.06R
PARIS          MOSUNNY   61  54  77 SW8       30.08S
HUNTINGDON     SUNNY     57  53  86 S3        30.09R
LEXINGTON      MOSUNNY   54  52  94 VRB3      30.09S
SAVANNAH       SUNNY     54  54 100 CALM      30.12S
$$

TNZ008-025-027-028-033-062-065-066-251500-
NORTH MIDDLE TENNESSEE

CITY           SKY/WX    TMP DP  RH WIND       PRES   REMARKS
NASHVILLE      PTSUNNY   53  50  89 S3        30.11R
CLARKSVILLE    CLOUDY    57  54  89 S7        30.07S
SMYRNA         SUNNY     51  48  89 CALM      30.12R
COOKEVILLE     SUNNY     50  46  87 CALM      30.11R
CROSSVILLE     SUNNY     54  46  74 CALM      30.13R
$$

TNZ061-075-076-078-094-096-097-251500-
SOUTH MIDDLE TENNESSEE

CITY           SKY/WX    TMP DP  RH WIND       PRES   REMARKS
FAYETTEVILLE   SUNNY     54  46  76 S5G21     30.12R
TULLAHOMA      SUNNY     52  46  82 CALM      30.12S
WINCHESTER     SUNNY     52  48  87 SE3       30.12F
MCMINNVILLE    SUNNY     52  52 100 CALM      30.12R
COLUMBIA       MOSUNNY  N/A N/A N/A CALM      30.09F
SHELBYVILLE    SUNNY     54  50  87 CALM      30.12R
$$

TNZ017-018-042-046-047-251500-
NORTHEAST TENNESSEE

CITY           SKY/WX    TMP DP  RH WIND       PRES   REMARKS
TRI CITIES     MOSUNNY   43  42  97 CALM      30.12R
ELIZABETHTON   SUNNY     45  41  87 VRB3      30.12R
$$

TNZ012-013-036-069-073-074-251500-
CENTRAL EAST TENNESSEE

CITY           SKY/WX    TMP DP  RH WIND       PRES   REMARKS
KNOXVILLE      MOSUNNY   48  42  80 CALM      30.13R
OAK RIDGE      MOSUNNY   46  45  96 CALM      30.13F
GATLINBURG     SUNNY     46  39  76 CALM      30.12R
MORRISTOWN     SUNNY     48  46  93 CALM      30.13R
$$

TNZ083-085-099-251500-
SOUTHEAST TENNESSEE

CITY           SKY/WX    TMP DP  RH WIND       PRES   REMARKS
CHATTANOOGA    SUNNY     55  48  77 CALM      30.13R
$$

SKY/WX REPORTED AS FAIR MEANS FEW OR NO CLOUDS BELOW
12 THOUSAND FEET.




USA.gov is the U.S. government's official web portal to all federal, state and local government web resources and services.